Location: Stoke Bliss
(52.2667°N, 2.5167°W)
Time: 19:02:56
(UTC+00:00)

ERS-2 - Pass Details

Date: 03 March 2021
Orbit: 492 x 496 km, 98.6° (Epoch: 17 April)

Event Time Altitude Azimuth Distance (km) Brightness Sun altitude
Rises 19:55:08 0° 8° (N) 2,597 5.8 -19.3°
Reaches altitude 10° 19:57:20 10° 359° (N) 1,710 5.0 -19.6°
Maximum altitude 20:00:41 34° 294° (WNW) 845 3.9 -20.1°
Drops below altitude 10° 20:04:00 10° 229° (SW) 1,699 5.2 -20.6°
Sets 20:06:11 0° 220° (SW) 2,577 6.0 -20.9°
